Location: Little Arabia
(41.4620°N, 81.7687°W)
Time: 20:30:01
(UTC+00:00)

Meteor 2-10 Rocket - Pass Details

Date: 29 October 2020
Orbit: 734 x 885 km, 81.2° (Epoch: 03 December)

Event Time Altitude Azimuth Distance (km) Brightness Sun altitude
Rises 22:50:22 0° 156° (SSE) 3,305 6.7 -5.4°
Reaches altitude 10° 22:53:08 10° 144° (SE) 2,353 5.8 -5.9°
Maximum altitude 22:57:25 26° 90° (E) 1,499 4.5 -6.7°
Drops below altitude 10° 23:01:36 10° 35° (NE) 2,294 5.5 -7.4°
Sets 23:04:14 0° 23° (NNE) 3,205 6.4 -7.9°
